{"data":{"norad_id":54074,"epoch":"2026-09-20T07:59:23.685792Z","epoch_age_seconds":100865,"freshness":"FRESH","line1":"1 54074U 22136Z   26263.33291303  .00000420  00000+0  22935-4 0  9997","line2":"2 54074  53.1618 180.8892 0001293  83.6223 276.4927 15.35401350216352","mean_motion":15.3540135,"eccentricity":0.0001293,"inclination_deg":53.1618,"raan_deg":180.8892,"arg_perigee_deg":83.6223,"mean_anomaly_deg":276.4927,"bstar":2.2935e-5,"rev_number":21635,"period_min":93.786552942656,"perigee_km":458.84449858755,"apogee_km":460.61277064067,"semimajor_km":6837.8656346141,"source":"CELESTRAK","updated_at":"2026-09-21T09:00:33.080021Z"}}